Regional Weather Roundup
Issued by NWS

Home | Current Version | Previous Version | Graphics & Text | Print | Product List | Glossary On
Versions: 1 2 3 4 5 6 7 8 9 10 11 12 13 14 15 16 17 18 19 20 21 22 23 24 25 26 27 28 29 30 31 32 33 34 35 36 37 38 39 40 41 42 43 44 45 46 47 48 49 50
942
ASUS43 KBIS 141802
RWRND

NORTH DAKOTA REGIONAL WEATHER ROUNDUP
NATIONAL WEATHER SERVICE BISMARCK ND
1200 PM CST SUN FEB 14 2016

NOTE: "FAIR" INDICATES FEW OR NO CLOUDS BELOW 12,000 FEET WITH NO
SIGNIFICANT WEATHER AND/OR OBSTRUCTIONS TO VISIBILITY.


NDZ001>003-009>011-017-141900-
NORTHWEST NORTH DAKOTA

CITY           SKY/WX    TMP DP  RH WIND       PRES   REMARKS
WILLISTON      CLOUDY    31  25  78 W3        29.72S
6HR MIN TEMP:  17; 6HR MAX TEMP:  31;

MINOT          CLOUDY    33  25  72 W17       29.68S
$$

NDZ018>021-031>035-040>046-141900-
SOUTHWEST NORTH DAKOTA

CITY           SKY/WX    TMP DP  RH WIND       PRES   REMARKS
BISMARCK       CLOUDY    39  30  70 W3        29.73S
6HR MIN TEMP:  24; 6HR MAX TEMP:  39; 6HR PCP: TRACE;

DICKINSON      MOSUNNY   36  27  69 W13       29.70R
GARRISON         N/A     33  28  81 NW15      29.70R
6HR MIN TEMP:  27; 6HR MAX TEMP:  33; 6HR PCP:  0.01;

HETTINGER ARPT CLOUDY    38  28  67 W18       29.74S
$$

NDZ004>008-012>016-024-026-027-054-141900-
NORTHEAST NORTH DAKOTA

CITY           SKY/WX    TMP DP  RH WIND       PRES   REMARKS
GRAND FORKS    LGT SNOW  17  12  80 S21       29.77F VSB 1   WCI   0
GRND FRKS AFB  CLOUDY    16  11  81 S17       29.74F HAZE    WCI   0
DEVILS LAKE    CLOUDY    20  16  84 W10       29.69S WCI   9
$$

NDZ022-023-025-028>030-036>039-047>053-141900-
SOUTHEAST NORTH DAKOTA

CITY           SKY/WX    TMP DP  RH WIND       PRES   REMARKS
FARGO          LGT SNOW  16  11  80 S18G25    29.81F WCI   0
6HR MIN TEMP:  14; 6HR MAX TEMP:  16; 6HR PCP:  0.04;

JAMESTOWN      CLOUDY    22  19  89 S8        29.70S WCI  12
$$





USA.gov is the U.S. government's official web portal to all federal, state and local government web resources and services.